Weather History for KDLL - June, 2014

Change the Weather History Date:

Saturday, June 7, 2014

  Actual Average Record
Temperature  
Mean Temperature 67 °F -  
Max Temperature 78 °F 77 °F 93 °F (1963)
Min Temperature 57 °F 52 °F 41 °F (1977)
Cooling Degree Days 2    
Growing Degree Days 17 (Base 50)    
Moisture  
Dew Point 56 °F    
Average Humidity 74    
Maximum Humidity 93    
Minimum Humidity 48    
Precipitation  
Precipitation 0.16 in - - ()
Sea Level Pressure  
Sea Level Pressure 29.95 in    
Wind  
Wind Speed 4 mph (SSW)    
Max Wind Speed 12 mph    
Max Gust Speed 18 mph    
Visibility 10 miles    
Events Rain , Thunderstorm    
Averages and records for this station are not official NWS values.
T = Trace of Precipitation, MM = Missing Value Source: NWS Daily Summary

Daily Weather History Graph

Daily Weather History Graph

Search for Another Location

Airport or City:

Trip Planner

Search our weather history database for the weather conditions in past years. The results will help you decide how hot, cold, wet, or windy it might be!

Date:

Astronomy

Jun. 07, 2014 Rise Set
Actual Time 5:18 AM CDT 8:37 PM CDT
Civil Twilight 4:43 AM CDT 9:13 PM CDT
Nautical Twilight 3:57 AM CDT 9:59 PM CDT
Astronomical Twilight 3:00 AM CDT 10:56 PM CDT
Moon 2:46 PM CDT (6/7) 1:50 AM CDT (6/7)
Length of Visible Light 16h 30m
Length of Day
15h 19m
Waxing Gibbous, 68% of the Moon is Illuminated
Jun 7
Waxing Gibbous
Jun 12
Full
Jun 19
Last Quarter
Jun 27
New
Jul 5
First Quarter

Hourly Weather History & Observations

Time (CDT) Temp. Dew Point Humidity Pressure Visibility Wind Dir Wind Speed Gust Speed Precip Events Conditions
12:15 AM 61.7 °F 55.6 °F 80% 29.98 in 10.0 mi Calm Calm - N/A   Clear
12:35 AM 61.0 °F 55.0 °F 81% 29.97 in 10.0 mi SE 4.6 mph - N/A   Clear
12:55 AM 59.9 °F 54.7 °F 83% 29.96 in 10.0 mi South 3.5 mph - N/A   Clear
1:15 AM 60.3 °F 54.9 °F 82% 29.97 in 10.0 mi Calm Calm - N/A   Clear
1:35 AM 60.6 °F 53.6 °F 78% 29.97 in 10.0 mi South 3.5 mph - N/A   Clear
1:55 AM 61.5 °F 55.0 °F 79% 29.96 in 10.0 mi Calm Calm - N/A   Clear
2:15 AM 60.3 °F 54.0 °F 80% 29.95 in 10.0 mi Calm Calm - N/A   Clear
2:35 AM 59.0 °F 53.8 °F 83% 29.97 in 10.0 mi SSW 4.6 mph - N/A   Clear
2:55 AM 58.8 °F 53.1 °F 81% 29.97 in 10.0 mi South 4.6 mph - N/A   Clear
3:15 AM 59.0 °F 52.7 °F 80% 29.97 in 10.0 mi SSE 5.8 mph - N/A   Clear
3:35 AM 58.6 °F 52.3 °F 80% 29.98 in 10.0 mi South 5.8 mph - N/A   Clear
3:55 AM 57.4 °F 51.6 °F 81% 29.98 in 10.0 mi SSE 8.1 mph - N/A   Clear
4:15 AM 58.8 °F 50.7 °F 74% 29.98 in 10.0 mi South 4.6 mph - N/A   Clear
4:35 AM 58.5 °F 49.8 °F 73% 29.98 in 10.0 mi South 5.8 mph - N/A   Clear
4:55 AM 58.5 °F 49.5 °F 72% 29.98 in 10.0 mi South 4.6 mph - N/A   Clear
5:15 AM 57.6 °F 49.1 °F 73% 29.98 in 10.0 mi South 4.6 mph - N/A   Clear
5:35 AM 57.9 °F 48.6 °F 71% 29.98 in 10.0 mi South 6.9 mph - N/A   Clear
5:55 AM 59.4 °F 49.1 °F 69% 29.98 in 10.0 mi South 3.5 mph - N/A   Clear
6:15 AM 61.0 °F 49.8 °F 67% 29.98 in 10.0 mi Calm Calm - N/A   Clear
6:55 AM 63.1 °F 51.8 °F 66% 29.97 in 10.0 mi South 6.9 mph - N/A   Clear
7:15 AM 63.9 °F 51.1 °F 63% 29.97 in 10.0 mi South 6.9 mph - N/A   Clear
7:35 AM 66.0 °F 52.5 °F 62% 29.97 in 10.0 mi South 8.1 mph - N/A   Clear
8:00 AM 67.3 °F 53.4 °F 61% 29.96 in 10.0 mi South 6.9 mph - N/A   Clear
8:15 AM 67.8 °F 54.0 °F 61% 29.96 in 10.0 mi South 8.1 mph - N/A   Clear
8:35 AM 70.3 °F 54.5 °F 57% 29.96 in 10.0 mi SSW 8.1 mph - N/A   Clear
8:55 AM 72.0 °F 57.6 °F 60% 29.96 in 10.0 mi SSW 9.2 mph - N/A   Clear
9:15 AM 72.0 °F 58.3 °F 62% 29.96 in 10.0 mi SSW 8.1 mph - N/A   Clear
9:35 AM 72.5 °F 59.0 °F 62% 29.97 in 10.0 mi SSW 5.8 mph - N/A   Clear
9:55 AM 73.2 °F 60.3 °F 64% 29.97 in 10.0 mi SW 5.8 mph - N/A   Clear
10:15 AM 73.4 °F 59.7 °F 62% 29.97 in 10.0 mi SW 8.1 mph - N/A   Clear
10:35 AM 74.8 °F 60.4 °F 61% 29.96 in 10.0 mi SSW 6.9 mph - N/A   Clear
10:55 AM 75.7 °F 61.9 °F 62% 29.96 in 10.0 mi SSW 8.1 mph - N/A   Clear
11:15 AM 75.6 °F 61.3 °F 61% 29.95 in 10.0 mi SSW 6.9 mph - N/A   Clear
11:35 AM 76.8 °F 62.2 °F 61% 29.94 in 10.0 mi WSW 6.9 mph - N/A   Clear
12:15 PM 76.3 °F 59.5 °F 56% 29.92 in 10.0 mi WSW 6.9 mph - N/A   Scattered Clouds
12:35 PM 77.0 °F 59.7 °F 55% 29.92 in 10.0 mi SSW 9.2 mph - N/A   Scattered Clouds
12:55 PM 77.0 °F 58.5 °F 53% 29.92 in 10.0 mi South 9.2 mph - N/A   Scattered Clouds
1:15 PM 76.8 °F 58.1 °F 52% 29.91 in 10.0 mi SSW 9.2 mph - N/A   Scattered Clouds
1:35 PM 77.0 °F 59.0 °F 54% 29.90 in 10.0 mi South 10.4 mph - N/A   Clear
1:55 PM 77.5 °F 59.2 °F 53% 29.89 in 10.0 mi South 9.2 mph - N/A   Clear
2:15 PM 77.9 °F 56.7 °F 48% 29.88 in 10.0 mi SW 9.2 mph - N/A   Clear
2:35 PM 76.3 °F 55.6 °F 49% 29.89 in 10.0 mi SW 6.9 mph - N/A   Scattered Clouds
2:55 PM 75.9 °F 55.6 °F 49% 29.89 in 10.0 mi WSW 6.9 mph - N/A   Mostly Cloudy
3:15 PM 72.7 °F 57.7 °F 59% 29.90 in 10.0 mi NNW 11.5 mph 17.3 mph N/A   Mostly Cloudy
3:35 PM 70.5 °F 58.3 °F 65% 29.90 in 10.0 mi NW 10.4 mph 18.4 mph N/A   Overcast
3:55 PM 68.2 °F 58.6 °F 71% 29.91 in 10.0 mi NW 8.1 mph - N/A Rain Rain
4:15 PM 65.8 °F 58.5 °F 77% 29.92 in 10.0 mi WNW 5.8 mph - N/A Rain Light Rain
4:35 PM 65.5 °F 59.0 °F 80% 29.93 in 10.0 mi West 4.6 mph - 0.01 in Rain , Thunderstorm Light Thunderstorms and Rain
4:55 PM 64.2 °F 57.9 °F 80% 29.94 in 10.0 mi NE 4.6 mph - 0.01 in Thunderstorm Unknown
5:15 PM 64.4 °F 57.6 °F 78% 29.93 in 10.0 mi Calm Calm - N/A Rain Light Rain
5:55 PM 63.0 °F 57.2 °F 81% 29.93 in 10.0 mi NNW 3.5 mph - 0.05 in Rain , Thunderstorm Light Thunderstorms and Rain
6:15 PM 62.6 °F 58.6 °F 87% 29.93 in 4.0 mi Calm Calm - 0.02 in Rain Rain
6:35 PM 62.6 °F 58.5 °F 86% 29.92 in 7.0 mi Calm Calm - 0.05 in Rain Rain
6:55 PM 62.6 °F 57.9 °F 85% 29.92 in 10.0 mi Calm Calm - 0.07 in Rain Light Rain
7:15 PM 61.9 °F 58.8 °F 90% 29.92 in 10.0 mi Calm Calm - 0.01 in Rain Light Rain
7:35 PM 61.9 °F 58.1 °F 87% 29.92 in 10.0 mi Calm Calm - 0.02 in Rain Light Rain
7:55 PM 62.1 °F 59.0 °F 90% 29.92 in 10.0 mi NNW 3.5 mph - 0.02 in   Light Drizzle
8:15 PM 61.3 °F 58.6 °F 91% 29.92 in 10.0 mi ESE 4.6 mph - N/A   Overcast
8:35 PM 60.6 °F 58.1 °F 91% 29.93 in 10.0 mi ESE 3.5 mph - N/A Rain Light Rain
8:55 PM 60.3 °F 57.9 °F 92% 29.92 in 10.0 mi East 5.8 mph - N/A Rain Light Rain
9:15 PM 60.3 °F 57.7 °F 91% 29.93 in 10.0 mi Calm Calm - N/A   Overcast
9:35 PM 61.0 °F 58.1 °F 90% 29.95 in 10.0 mi NW 3.5 mph - N/A   Light Drizzle
9:55 PM 60.4 °F 58.1 °F 92% 29.95 in 10.0 mi NW 4.6 mph - N/A   Scattered Clouds
10:15 PM 60.3 °F 58.3 °F 93% 29.96 in 10.0 mi Calm Calm - N/A   Scattered Clouds
10:35 PM 60.4 °F 58.3 °F 93% 29.95 in 10.0 mi WNW 3.5 mph - N/A   Mostly Cloudy
10:55 PM 60.8 °F 58.6 °F 93% 29.96 in 10.0 mi NNW 6.9 mph - 0.01 in   Overcast
11:15 PM 60.4 °F 57.7 °F 91% 29.97 in 10.0 mi North 3.5 mph - N/A   Overcast
11:35 PM 59.7 °F 56.7 °F 90% 29.97 in 10.0 mi North 3.5 mph - N/A   Mostly Cloudy
11:55 PM 59.2 °F 56.3 °F 90% 29.98 in 10.0 mi NNW 4.6 mph - N/A   Mostly Cloudy